Regional Weather Roundup
Issued by NWS State College, PA

Home | Current Version | Previous Version | Graphics & Text | Print | Product List | Glossary Off
Versions: 1 2 3 4 5 6 7 8 9 10 11 12 13 14 15 16 17 18 19 20 21 22 23 24 25 26 27 28 29 30 31 32 33 34 35 36 37 38 39 40 41 42 43 44 45 46 47 48 49 50

000
ASUS41 KCTP 260310
RWRCTP

REGIONAL WEATHER ROUNDUP
NATIONAL WEATHER SERVICE STATE COLLEGE PA
1000 PM EST THU DEC 25 2014

Note: "fair" indicates few or no clouds below 12,000 feet with no
significant weather and/or obstructions to visibility.

* = STATION THAT DOES NOT REPORT PRECIPITATION /E.G. RAIN...SNOW...ETC/
    THUNDER OR FOG.

PAZ002>004-007>009-013>016-020>023-029>032-260400-
WESTERN PENNSYLVANIA

CITY           SKY/WX    TMP DP  RH WIND       PRES   REMARKS
ERIE           CLOUDY    39  29  67 SW9       30.17R
MEADVILLE      CLOUDY    36  28  73 SW9       30.15R
FRANKLIN*      CLOUDY    36  25  64 SW9       30.18R
NEW CASTLE       N/A     37  30  76 S6        30.21R
BEAVER COUNTY  NOT AVBL
BUTLER*        CLOUDY    37  28  70 W8        30.21R
PITTSBURGH INT CLOUDY    38  29  70 W8        30.20S
PITTSBURGH     CLOUDY    38  27  64 SW7       30.20R
INDIANA*       CLOUDY    37  28  70 W7G16     30.23R
LATROBE        MOCLDY    37  32  81 SW7       30.23R
WASHINGTON CO* NOT AVBL
$$

PAZ004>006-010>012-017>019-024>028-033>037-041-042-045-046-049>053-260400-
CENTRAL PENNSYLVANIA

CITY           SKY/WX    TMP DP  RH WIND       PRES   REMARKS
BRADFORD       CLOUDY    33  25  72 W10       30.11R
DUBOIS         CLOUDY    35  27  72 W15       30.14R
CLEARFIELD     CLOUDY    37  26  64 W12G18    30.16R
JOHNSTOWN      CLOUDY    33  25  72 W12       30.15R
ALTOONA        PTCLDY    36  27  69 W12G22    30.17R
STATE COLLEGE  CLOUDY    38  30  72 W15       30.17R
WILLIAMSPORT   CLOUDY    41  28  60 W6        30.14R
SELINSGROVE    CLEAR     42  28  57 W6        30.16R
FT INDIANTOWN  CLEAR     42  28  57 W9G21     30.13F
CAPITAL CITY   CLEAR     39  29  67 W7        30.15S
HARRISBURG     CLEAR     37  28  70 NW6       30.15R
YORK           CLEAR     32  27  81 CALM      30.16R
$$

PAZ038>040-043-044-047-048-054-055-060>062-067>071-260400-
EASTERN PENNSYLVANIA

CITY           SKY/WX    TMP DP  RH WIND       PRES   REMARKS
SCRANTON       CLOUDY    41  27  57 W12G21    30.10R
MOUNT POCONO   CLEAR     36  26  67 NW16G31   30.02F
ALLENTOWN      PTCLDY    42  29  59 W9        30.11R
QUAKERTOWN*    NOT AVBL
READING        CLEAR     41  28  60 NW8       30.13S
LANCASTER      CLEAR     37  28  70 W8        30.15R
COATESVILLE    CLEAR     39  32  75 W7        30.15R
POTTSTOWN      CLEAR     40  28  62 NW6       30.14S
BLUE BELL      CLEAR     43  32  65 CALM      30.13S
DOYLESTOWN     PTCLDY    40 N/A N/A W9        30.11R
WILLOW GROVE   NOT AVBL
NORTH PHILA    CLEAR     44  28  53 W9        30.15R
PHILADELPHIA   CLEAR     45  28  51 W14       30.16R
$$


USA.gov is the U.S. government's official web portal to all federal, state and local government web resources and services.